Location: Unspecified
(0.0000°N, 0.0000°E)
Time: 13:41:57
(UTC+00:00)

Vanguard 3 - Pass Details

Date: 25 November 2019
Orbit: 508 x 3263 km, 33.3° (Epoch: 08 December)

Event Time Altitude Azimuth Distance (km) Brightness Sun altitude
Rises 20:37:27 0° 302° (WNW) 6,098 12.0 -39.3°
Reaches altitude 10° 20:42:12 10° 300° (WNW) 4,655 11.3 -40.3°
Enters shadow 20:51:42 53° 276° (W) 1,774 8.8 -42.4°
Maximum altitude 20:53:53 68° 219° (SW) 1,425 - -42.9°
Drops below altitude 10° 21:00:15 10° 136° (SE) 2,640 - -44.3°
Sets 21:02:17 0° 133° (SE) 3,356 - -44.7°
